Home   Weather   Nikšić   Past weeks

Flag for Montenegro Past Weather in Nikšić, Montenegro — Yesterday and Last 2 Weeks

Now
57 °F

Clear.


Feels Like: 58 °F
Forecast: 34 / 70 °F
Wind: 3 mph from North

Location: Niksic

Current Time: Sep 26, 2016 at 10:52:40 PM

Latest Report: Sep 26, 2016 at 10:00 PM


Visibility: 13 mi

Pressure: 30.16 "Hg (27.96 "Hg at 635m altitude)

Humidity: 61%

Dew Point: 44 °F

Location of NikšićLocation

Past Weather in Nikšić — Graph

°F

Nikšić Temperature Yesterday

Maximum temperature yesterday: 68 °F (at 3:00 PM)
Minimum temperature yesterday: 47 °F (at 6:00 AM)
Average temperature yesterday: 59 °F

High & Low Weather Summary for the Past Weeks

 TemperatureHumidityPressure
High79 °F (Sep 13, 2:00 PM)100% (Sep 13, 7:00 AM)30.35 "Hg (Sep 13, 7:00 AM)
Low43 °F (Sep 23, 7:00 AM)35% (Sep 23, 2:00 PM)29.75 "Hg (Sep 19, 3:00 PM)
Average61 °F73%30.04 "Hg
* Reported Sep 11 9:00 PM — Sep 26 9:00 PM, Nikšić, Weather by CustomWeather, © 2016

Note: Actual official high and low records may vary slightly from our data, if they occured in-between our weather recording intervals... More about our weather records

Advertising

Nikšić Weather History for the Previous 24 Hours

Scroll right to see more
 ConditionsComfort  
Time TempWeatherWind HumidityBarometerVisibility
9:00 PM
Mon, Sep 26
58 °FPassing clouds.2 mph56%30.14 "Hg12 mi
8:00 PM59 °FPassing clouds.2 mph59%30.12 "Hg12 mi
7:00 PM61 °FPassing clouds.2 mph55%30.10 "Hg12 mi
6:00 PM64 °FScattered clouds.2 mph49%30.06 "Hg12 mi
3:00 PM67 °FPartly sunny.2 mph46%30.05 "Hg12 mi
2:00 PM65 °FPartly sunny.3 mph51%30.04 "Hg12 mi
1:00 PM67 °FScattered clouds.2 mph46%30.05 "Hg12 mi
12:00 PM65 °FScattered clouds.5 mph49%30.05 "Hg12 mi
11:00 AM64 °FScattered clouds.6 mph50%30.06 "Hg12 mi
10:00 AM62 °FScattered clouds.2 mph56%30.08 "Hg12 mi
9:00 AM57 °FPassing clouds.2 mph66%30.09 "Hg12 mi
8:00 AM51 °FPassing clouds.2 mph77%30.11 "Hg12 mi
7:00 AM48 °FPassing clouds.2 mph80%30.12 "Hg12 mi
6:00 AM50 °FPassing clouds.2 mph75%30.11 "Hg12 mi
5:00 AM51 °FPassing clouds.2 mph75%30.11 "Hg12 mi
2:00 AM53 °FPassing clouds.2 mph72%30.13 "Hg12 mi
11:00 PM
Sun, Sep 25
57 °FPassing clouds.2 mph62%30.10 "Hg12 mi
10:00 PM58 °FPassing clouds.2 mph60%30.10 "Hg12 mi
Weather by CustomWeather, © 2016

See weather overviewHow to use our weather pages